1521266400.41,16857,8.25,71956.8,-6.29,-7.91,-7.91,0,*50
1521266401.61,16858,8.25,71968.0,-6.25,-7.87,-7.87,0,*53
1521266402.82,16859,8.25,71970.3,-6.25,-7.87,-7.87,0,*52
1521266404.02,16860,8.25,71968.0,-6.25,-7.87,-7.87,0,*58
1521266405.22,16861,8.25,71970.0,-6.25,-7.87,-7.87,0,*59
1521266406.43,16862,8.25,71968.3,-6.25,-7.87,-7.87,0,*5A
1521266407.63,16863,8.25,71964.5,-6.25,-7.83,-7.87,0,*5F
1521266408.83,16864,8.25,71968.0,-6.25,-7.87,-7.83,0,*58
1521266410.04,16865,8.31,71974.3,-6.25,-7.87,-7.83,0,*59
1521266411.24,16866,8.25,71968.5,-6.25,-7.83,-7.83,0,*5E
1521266412.45,16867,8.25,71974.8,-6.25,-7.87,-7.83,0,*5B
1521266413.65,16868,8.25,71970.0,-6.25,-7.87,-7.83,0,*54
1521266414.86,16869,8.25,71972.0,-6.25,-7.87,-7.83,0,*55
1521266416.06,16870,8.25,71968.3,-6.25,-7.87,-7.83,0,*5D
1521266417.26,16871,8.25,71970.8,-6.25,-7.87,-7.83,0,*5C
1521266418.47,16872,8.25,71974.0,-6.25,-7.83,-7.83,0,*5B
1521266419.69,16873,8.25,71974.0,-6.23,-7.83,-7.83,0,*5C
1521266420.92,16874,8.25,71972.5,-6.23,-7.83,-7.83,0,*5B
1521266422.15,16875,8.25,71976.5,-6.21,-7.83,-7.73,0,*57
1521266423.39,16876,8.25,71980.5,-6.21,-7.77,-7.77,0,*5B
1521266424.62,16877,8.25,71990.8,-6.23,-7.83,-7.83,0,*58
1521266425.85,16878,8.25,71986.5,-6.23,-7.83,-7.83,0,*57
1521266427.08,16879,8.25,71974.5,-6.23,-7.83,-7.83,0,*56
1521266428.31,16880,8.25,71970.3,-6.23,-7.83,-7.83,0,*50
1521266429.54,16881,8.31,71972.5,-6.23,-7.83,-7.83,0,*51
1521266430.79,16882,8.25,71968.3,-6.23,-7.73,-7.83,0,*5D
1521266432.02,16883,8.25,71974.0,-6.23,-7.83,-7.83,0,*53
1521266433.27,16884,8.25,71974.0,-6.21,-7.69,-7.77,0,*59
1521266434.52,16885,8.25,71974.3,-6.21,-7.77,-7.77,0,*57
1521266435.76,16886,8.31,71974.8,-6.21,-7.77,-7.77,0,*54
1521266437.01,16887,8.25,71964.5,-6.21,-7.69,-7.77,0,*5A
1521266438.26,16888,8.25,71966.8,-6.21,-7.77,-7.69,0,*55
1521266439.52,16889,8.25,71958.8,-6.23,-7.73,-7.83,0,*56
1521266440.76,16890,8.25,71956.8,-6.21,-7.77,-7.69,0,*5C
1521266442.0,16891,8.25,71956.3,-6.21,-7.77,-7.69,0,*5D
1521266443.25,16892,8.25,71960.0,-6.21,-7.69,-7.69,0,*51
1521266444.49,16893,8.25,71966.5,-6.21,-7.77,-7.69,0,*5F
1521266445.74,16894,8.25,71970.8,-6.21,-7.69,-7.69,0,*57
1521266446.98,16895,8.25,71972.3,-6.21,-7.69,-7.77,0,*59
1521266448.23,16896,8.25,71972.8,-6.21,-7.69,-7.77,0,*5A
1521266449.51,16897,8.31,71978.3,-6.19,-7.77,-7.77,0,*5F
1521266450.76,16898,8.25,71972.0,-6.21,-7.77,-7.77,0,*5B
1521266452.01,16899,8.25,71972.5,-6.21,-7.77,-7.77,0,*5A
1521266453.23,16900,8.25,71972.0,-6.23,-7.83,-7.83,0,*59
1521266454.51,16901,8.25,71972.5,-6.19,-7.77,-7.77,0,*51
1521266455.79,16902,8.25,71970.5,-6.19,-7.77,-7.77,0,*52
1521266457.07,16903,8.25,71966.0,-6.19,-7.77,-7.77,0,*53
1521266458.34,16904,8.25,71970.5,-6.19,-7.77,-7.77,0,*54
1521266459.6,16905,8.31,71972.8,-6.19,-7.83,-7.77,0,*5E
1521266460.83,16906,8.25,71968.3,-6.19,-7.83,-7.83,0,*56
1521266462.08,16907,8.25,71974.3,-6.19,-7.91,-7.83,0,*54
1521266463.31,16908,8.25,71970.5,-6.19,-7.83,-7.83,0,*58
1521266464.54,16909,8.25,71974.3,-6.19,-7.83,-7.83,0,*59
1521266465.8,16910,8.25,71972.8,-6.19,-7.91,-7.83,0,*52
1521266467.05,16911,8.25,71980.8,-6.19,-7.91,-7.83,0,*53
1521266468.3,16912,8.25,71978.3,-6.19,-7.83,-7.91,0,*50
1521266469.55,16913,8.25,71980.8,-6.19,-7.91,-7.83,0,*51
1521266470.8,16914,8.25,71976.3,-6.19,-7.91,-7.83,0,*56
1521266472.04,16915,8.25,71982.3,-6.19,-7.83,-7.83,0,*54
1521266473.29,16916,8.25,71982.0,-6.19,-7.91,-7.83,0,*54
1521266474.51,16917,8.25,71986.8,-6.21,-7.83,-7.91,0,*5E
1521266475.73,16918,8.25,71984.3,-6.21,-7.83,-7.91,0,*51
1521266476.95,16919,8.25,71986.3,-6.21,-7.83,-7.91,0,*50
1521266478.21,16920,8.25,71980.3,-6.19,-7.83,-7.91,0,*51
1521266479.44,16921,8.25,71978.5,-6.19,-7.83,-7.83,0,*53
1521266480.69,16922,8.25,71976.3,-6.19,-7.83,-7.91,0,*53
1521266481.91,16923,8.25,71980.3,-6.21,-7.91,-7.83,0,*59
1521266483.13,16924,8.31,71990.3,-6.21,-7.83,-7.91,0,*5E
1521266484.33,16925,8.25,71982.5,-6.21,-7.83,-7.83,0,*5C
1521266485.53,16926,8.25,71966.5,-6.21,-7.83,-7.83,0,*5F
1521266486.77,16927,8.25,71974.8,-6.19,-7.83,-7.83,0,*55
1521266488.0,16928,8.25,71978.5,-6.19,-7.83,-7.83,0,*5A
1521266489.23,16929,8.25,71976.8,-6.19,-7.83,-7.83,0,*5B
1521266490.48,16930,8.25,71974.8,-6.19,-7.83,-7.77,0,*58
1521266491.76,16931,8.31,71968.3,-6.19,-7.77,-7.77,0,*52
1521266493.04,16932,8.25,71964.0,-6.19,-7.77,-7.77,0,*51
1521266494.29,16933,8.25,71968.0,-6.19,-7.83,-7.77,0,*5B
1521266495.54,16934,8.31,71970.3,-6.17,-7.77,-7.73,0,*5D
1521266496.79,16935,8.25,71974.8,-6.19,-7.83,-7.77,0,*5D
1521266498.05,16936,8.31,71974.3,-6.19,-7.83,-7.77,0,*5E
1521266499.3,16937,8.31,71974.3,-6.19,-7.83,-7.77,0,*5F
1521266500.56,16938,8.25,71972.0,-6.19,-7.83,-7.77,0,*50
1521266501.8,16939,8.31,71974.0,-6.17,-7.77,-7.65,0,*57
1521266503.08,16940,8.25,71974.0,-6.19,-7.77,-7.69,0,*5B
1521266504.32,16941,8.25,71972.0,-6.17,-7.69,-7.69,0,*5B
1521266505.58,16942,8.25,71970.8,-6.17,-7.73,-7.73,0,*58
1521266506.83,16943,8.31,71972.5,-6.17,-7.73,-7.73,0,*59
1521266508.11,16944,8.25,71972.8,-6.19,-7.77,-7.73,0,*54
1521266509.36,16945,8.25,71972.5,-6.17,-7.73,-7.73,0,*5F
1521266510.64,16946,8.31,71978.3,-6.19,-7.77,-7.69,0,*5D
1521266511.91,16947,8.25,71970.5,-6.19,-7.69,-7.69,0,*53
1521266513.18,16948,8.31,71970.0,-6.19,-7.69,-7.69,0,*5C
1521266514.44,16949,8.25,71970.5,-6.17,-7.65,-7.65,0,*53
1521266515.71,16950,8.25,71964.0,-6.19,-7.69,-7.65,0,*59
1521266516.96,16951,8.31,71970.5,-6.17,-7.65,-7.61,0,*5E
1521266518.22,16952,8.31,71974.5,-6.17,-7.73,-7.65,0,*5E
1521266519.47,16953,8.25,71970.0,-6.17,-7.65,-7.65,0,*58
1521266520.72,16954,8.31,71978.0,-6.17,-7.65,-7.61,0,*5B
1521266521.98,16955,8.25,71972.8,-6.17,-7.65,-7.61,0,*5A
1521266523.23,16956,8.25,71972.8,-6.17,-7.61,-7.61,0,*5D
1521266524.45,16957,8.31,71978.8,-6.17,-7.61,-7.53,0,*5D
1521266525.7,16958,8.25,71976.8,-6.17,-7.61,-7.61,0,*53
1521266526.96,16959,8.31,71980.8,-6.13,-7.57,-7.57,0,*56
1521266528.22,16960,8.25,71982.5,-6.13,-7.57,-7.57,0,*5C
1521266529.47,16961,8.25,71980.8,-6.13,-7.57,-7.57,0,*5D
1521266530.7,16962,8.31,71984.5,-6.13,-7.57,-7.49,0,*51
1521266531.92,16963,8.31,71986.5,-6.13,-7.49,-7.57,0,*50
1521266533.12,16964,8.25,71982.0,-6.13,-7.49,-7.49,0,*58
1521266534.38,16965,8.25,71980.5,-6.13,-7.57,-7.57,0,*59
1521266535.6,16966,8.25,71984.0,-6.13,-7.57,-7.49,0,*55
1521266536.83,16967,8.25,71982.8,-6.13,-7.49,-7.57,0,*54
1521266538.08,16968,8.31,71984.5,-6.13,-7.57,-7.57,0,*54
1521266539.34,16969,8.31,71986.0,-6.13,-7.61,-7.57,0,*50
1521266540.59,16970,8.25,71980.3,-6.13,-7.61,-7.57,0,*58
1521266541.84,16971,8.25,71978.5,-6.13,-7.69,-7.61,0,*54
1521266543.1,16972,8.25,71982.3,-6.13,-7.69,-7.61,0,*57
1521266544.34,16973,8.25,71980.3,-6.13,-7.61,-7.69,0,*56
1521266545.59,16974,8.25,71976.3,-6.13,-7.69,-7.69,0,*59
1521266546.84,16975,8.31,71978.8,-6.13,-7.69,-7.69,0,*58
1521266548.08,16976,8.25,71978.0,-6.13,-7.69,-7.69,0,*5B
1521266549.33,16977,8.25,71968.0,-6.13,-7.69,-7.61,0,*52
1521266550.58,16978,8.25,71972.0,-6.13,-7.69,-7.69,0,*55
1521266551.83,16979,8.31,71972.0,-6.13,-7.69,-7.69,0,*54
1521266553.08,16980,8.25,71972.5,-6.13,-7.61,-7.61,0,*52
1521266554.33,16981,8.25,71978.8,-6.13,-7.61,-7.69,0,*5B
1521266555.58,16982,8.25,71976.3,-6.13,-7.61,-7.69,0,*58
1521266556.83,16983,8.25,71978.3,-6.13,-7.69,-7.69,0,*51
1521266558.1,16984,8.25,71980.8,-6.11,-7.61,-7.69,0,*5C
1521266559.38,16985,8.31,71982.5,-6.11,-7.61,-7.61,0,*55
1521266560.66,16986,8.31,71980.5,-6.11,-7.69,-7.61,0,*5E
1521266561.93,16987,8.25,71980.5,-6.11,-7.69,-7.69,0,*57
1521266563.2,16988,8.31,71984.3,-6.11,-7.69,-7.61,0,*50
1521266564.47,16989,8.25,71984.8,-6.11,-7.69,-7.69,0,*59
1521266565.74,16990,8.25,71982.3,-6.11,-7.69,-7.69,0,*51
1521266567.02,16991,8.31,71988.8,-6.11,-7.69,-7.61,0,*58
1521266568.29,16992,8.25,71982.3,-6.11,-7.69,-7.69,0,*53
1521266569.56,16993,8.31,71980.5,-6.11,-7.69,-7.69,0,*52
1521266570.84,16994,8.25,71986.5,-6.11,-7.69,-7.73,0,*5E
1521266572.12,16995,8.31,71984.8,-6.11,-7.73,-7.73,0,*54
1521266573.4,16996,8.25,71982.5,-6.11,-7.73,-7.73,0,*57
1521266574.65,16997,8.25,71984.0,-6.11,-7.83,-7.73,0,*59
1521266575.88,16998,8.31,71980.8,-6.11,-7.83,-7.83,0,*59
1521266577.16,16999,8.31,71980.5,-6.11,-7.73,-7.73,0,*58
1521266578.42,17000,8.25,71976.5,-6.13,-7.73,-7.73,0,*52
1521266579.67,17001,8.25,71970.8,-6.11,-7.83,-7.73,0,*5E
1521266580.95,17002,8.25,71972.0,-6.11,-7.73,-7.73,0,*52
1521266582.23,17003,8.25,71972.8,-6.11,-7.73,-7.73,0,*53
1521266583.49,17004,8.25,71968.8,-6.11,-7.73,-7.83,0,*5B
1521266584.77,17005,8.25,71964.0,-6.11,-7.73,-7.73,0,*55
1521266586.03,17006,8.25,71964.5,-6.09,-7.73,-7.73,0,*5F
1521266587.31,17007,8.31,71968.3,-6.11,-7.73,-7.73,0,*57
1521266588.55,17008,8.31,71966.3,-6.09,-7.69,-7.69,0,*51
1521266589.83,17009,8.25,71964.8,-6.11,-7.73,-7.69,0,*52
1521266591.08,17010,8.25,71966.0,-6.09,-7.69,-7.65,0,*54
1521266592.35,17011,8.31,71966.8,-6.11,-7.73,-7.69,0,*5B
1521266593.63,17012,8.25,71964.0,-6.11,-7.73,-7.69,0,*58
1521266594.88,17013,8.31,71962.3,-6.09,-7.69,-7.65,0,*57
1521266596.15,17014,8.31,71960.8,-6.11,-7.69,-7.69,0,*55
1521266597.42,17015,8.25,71956.0,-6.11,-7.69,-7.69,0,*54
1521266598.69,17016,8.25,71962.8,-6.11,-7.69,-7.61,0,*5F
1521266599.97,17017,8.25,71958.3,-6.11,-7.69,-7.61,0,*5E
1521266601.22,17018,8.31,71956.3,-6.09,-7.65,-7.65,0,*50
1521266602.49,17019,8.25,71960.3,-6.11,-7.61,-7.69,0,*50
1521266603.77,17020,8.25,71960.5,-6.11,-7.61,-7.69,0,*5A
1521266605.04,17021,8.25,71962.8,-6.11,-7.69,-7.61,0,*5B
1521266606.3,17022,8.25,71966.0,-6.09,-7.57,-7.65,0,*58
1521266607.55,17023,8.25,71970.0,-6.09,-7.65,-7.65,0,*58
1521266608.82,17024,8.31,71972.5,-6.11,-7.69,-7.69,0,*56
1521266610.07,17025,8.31,71972.5,-6.09,-7.65,-7.65,0,*5E
1521266611.31,17026,8.25,71976.0,-6.09,-7.69,-7.65,0,*51
1521266612.59,17027,8.25,71978.0,-6.11,-7.73,-7.69,0,*5E
1521266613.84,17028,8.31,71988.0,-6.09,-7.69,-7.77,0,*5C
1521266615.08,17029,8.25,71982.5,-6.09,-7.69,-7.69,0,*52
1521266616.33,17030,8.25,71980.5,-6.11,-7.83,-7.73,0,*5C
1521266617.58,17031,8.25,71982.0,-6.09,-7.77,-7.69,0,*54
1521266618.84,17032,8.25,71980.3,-6.11,-7.73,-7.83,0,*5E
1521266620.08,17033,8.25,71990.0,-6.09,-7.77,-7.77,0,*59
1521266621.31,17034,8.25,71988.3,-6.11,-7.83,-7.83,0,*57
1521266622.54,17035,8.25,71986.8,-6.11,-7.83,-7.83,0,*56
1521266623.8,17036,8.25,71986.5,-6.11,-7.73,-7.83,0,*5A
1521266625.02,17037,8.31,71988.5,-6.09,-7.77,-7.83,0,*56
1521266626.27,17038,8.25,71972.5,-6.11,-7.83,-7.73,0,*54
1521266627.53,17039,8.31,71960.0,-6.11,-7.73,-7.83,0,*55
1521266628.76,17040,8.31,71958.8,-6.11,-7.83,-7.83,0,*54
1521266629.99,17041,8.25,71958.5,-6.11,-7.83,-7.83,0,*55
1521266631.21,17042,8.25,71968.3,-6.11,-7.83,-7.83,0,*56
1521266632.47,17043,8.25,71966.3,-6.11,-7.83,-7.73,0,*58
1521266633.72,17044,8.31,71968.8,-6.11,-7.83,-7.73,0,*5F
1521266634.97,17045,8.31,71970.8,-6.13,-7.73,-7.73,0,*53
1521266636.26,17046,8.31,71970.8,-6.11,-7.73,-7.73,0,*52
1521266637.51,17047,8.25,71966.3,-6.11,-7.73,-7.83,0,*5C
1521266638.76,17048,8.25,71960.3,-6.09,-7.69,-7.69,0,*55
1521266640.01,17049,8.25,71958.3,-6.11,-7.83,-7.73,0,*52
1521266641.29,17050,8.25,71962.3,-6.11,-7.73,-7.73,0,*55
1521266642.57,17051,8.25,71960.3,-6.11,-7.73,-7.73,0,*54
1521266643.85,17052,8.25,71956.8,-6.11,-7.73,-7.73,0,*57
1521266645.13,17053,8.31,71966.8,-6.11,-7.73,-7.73,0,*56
1521266646.38,17054,8.25,71958.5,-6.09,-7.69,-7.57,0,*55
1521266647.65,17055,8.25,71950.8,-6.11,-7.69,-7.69,0,*50
1521266648.92,17056,8.25,71954.5,-6.11,-7.69,-7.69,0,*53
1521266650.2,17057,8.25,71958.5,-6.11,-7.61,-7.69,0,*5A
1521266651.47,17058,8.25,71962.5,-6.11,-7.69,-7.69,0,*5D
1521266652.74,17059,8.25,71974.8,-6.11,-7.69,-7.69,0,*5C
1521266654.01,17060,8.31,71968.5,-6.11,-7.61,-7.69,0,*5E
1521266655.28,17061,8.25,71964.5,-6.11,-7.69,-7.69,0,*57
1521266656.53,17062,8.25,71966.3,-6.09,-7.65,-7.65,0,*5D
1521266657.81,17063,8.25,71964.0,-6.11,-7.61,-7.61,0,*55
1521266659.06,17064,8.25,71970.5,-6.09,-7.65,-7.57,0,*5A
1521266660.29,17065,8.31,71974.3,-6.09,-7.57,-7.53,0,*5E
1521266661.54,17066,8.31,71968.3,-6.09,-7.65,-7.57,0,*58
1521266662.79,17067,8.25,71966.5,-6.09,-7.57,-7.57,0,*58
1521266664.07,17068,8.31,71966.3,-6.07,-7.65,-7.57,0,*58
1521266665.34,17069,8.31,71966.0,-6.07,-7.65,-7.57,0,*59
1521266666.62,17070,8.25,71964.0,-6.07,-7.57,-7.57,0,*50
1521266667.9,17071,8.31,71964.3,-6.07,-7.65,-7.57,0,*50
1521266669.18,17072,8.25,71958.5,-6.07,-7.57,-7.57,0,*52
1521266670.4,17073,8.25,71960.3,-6.05,-7.65,-7.53,0,*54
1521266671.68,17074,8.25,71964.0,-6.07,-7.57,-7.57,0,*54
1521266672.87,17075,8.31,71970.5,-6.05,-7.53,-7.53,0,*57
1521266674.15,17076,8.31,71970.5,-6.07,-7.65,-7.57,0,*57
1521266675.37,17077,8.25,71966.8,-6.05,-7.65,-7.53,0,*50
1521266676.59,17078,8.31,71970.0,-6.05,-7.65,-7.53,0,*5F
1521266677.78,17079,8.25,71962.5,-6.05,-7.53,-7.53,0,*5B
1521266679.06,17080,8.31,71964.0,-6.07,-7.65,-7.57,0,*5E
1521266680.31,17081,8.31,71962.5,-6.05,-7.61,-7.61,0,*5C
1521266681.53,17082,8.31,71962.3,-6.05,-7.61,-7.53,0,*5E
1521266682.78,17083,8.25,71958.3,-6.05,-7.65,-7.65,0,*5E
1521266684.06,17084,8.25,71956.0,-6.07,-7.65,-7.65,0,*5B
1521266685.27,17085,8.25,71962.8,-6.05,-7.61,-7.53,0,*59
1521266686.5,17086,8.31,71964.0,-6.05,-7.61,-7.53,0,*5A
1521266687.74,17087,8.25,71964.3,-6.07,-7.65,-7.53,0,*5D
1521266688.96,17088,8.25,71964.0,-6.05,-7.61,-7.53,0,*54
1521266690.15,17089,8.31,71968.5,-6.05,-7.53,-7.53,0,*54
1521266691.43,17090,8.31,71970.8,-6.07,-7.65,-7.57,0,*5F
1521266692.62,17091,8.31,71972.0,-6.05,-7.53,-7.53,0,*5D
1521266693.81,17092,8.25,71982.0,-6.05,-7.53,-7.53,0,*5E
1521266695.03,17093,8.25,71980.3,-6.05,-7.61,-7.53,0,*5E
1521266696.28,17094,8.25,71982.3,-6.05,-7.61,-7.61,0,*58
1521266697.5,17095,8.31,71986.0,-6.05,-7.61,-7.53,0,*58
1521266698.69,17096,8.31,71980.8,-6.05,-7.53,-7.53,0,*5A
1521266699.91,17097,8.31,71984.8,-6.05,-7.61,-7.53,0,*5A
1521266701.13,17098,8.25,71984.8,-6.05,-7.61,-7.53,0,*55
1521266702.38,17099,8.25,71984.8,-6.01,-7.57,-7.57,0,*51
1521266703.61,17100,8.31,71984.5,-6.01,-7.57,-7.49,0,*5F
1521266704.86,17101,8.25,71984.0,-6.05,-7.61,-7.61,0,*55
1521266706.11,17102,8.25,71980.3,-6.05,-7.61,-7.61,0,*56
1521266707.33,17103,8.25,71976.0,-6.05,-7.61,-7.53,0,*56
1521266708.57,17104,8.25,71978.5,-5.99,-7.49,-7.57,0,*59
1521266709.79,17105,8.25,71978.8,-6.01,-7.49,-7.57,0,*5A
1521266711.04,17106,8.31,71978.0,-6.01,-7.57,-7.57,0,*56
1521266712.29,17107,8.31,71978.3,-6.01,-7.57,-7.57,0,*57
1521266713.52,17108,8.31,71974.5,-6.01,-7.57,-7.49,0,*57
1521266714.7,17109,8.31,71974.5,-6.01,-7.49,-7.49,0,*59
1521266715.89,17110,8.31,71972.8,-6.01,-7.49,-7.49,0,*51
1521266717.14,17111,8.31,71972.3,-6.01,-7.57,-7.57,0,*50
1521266718.4,17112,8.25,71974.5,-6.01,-7.57,-7.57,0,*53
1521266719.65,17113,8.25,71978.3,-6.01,-7.57,-7.57,0,*52
1521266720.92,17114,8.31,71976.3,-5.99,-7.61,-7.57,0,*52
1521266722.16,17115,8.31,71976.8,-6.01,-7.61,-7.69,0,*5C
1521266723.41,17116,8.31,71976.0,-6.01,-7.61,-7.61,0,*57
1521266724.66,17117,8.25,71974.3,-6.01,-7.69,-7.61,0,*5E
1521266725.9,17118,8.25,71974.8,-6.01,-7.61,-7.69,0,*51
1521266727.15,17119,8.25,71968.3,-6.01,-7.69,-7.61,0,*50
1521266728.39,17120,8.25,71968.3,-6.01,-7.69,-7.61,0,*5A
1521266729.64,17121,8.31,71972.5,-6.01,-7.61,-7.69,0,*5B
1521266730.91,17122,8.25,71972.0,-5.99,-7.69,-7.61,0,*5A
1521266732.15,17123,8.25,71974.3,-6.01,-7.69,-7.69,0,*51
1521266733.39,17124,8.31,71974.3,-6.01,-7.69,-7.69,0,*56
1521266734.63,17125,8.31,71976.0,-6.01,-7.69,-7.61,0,*5F
1521266735.88,17126,8.31,71982.0,-6.01,-7.61,-7.61,0,*54
1521266737.13,17127,8.25,71978.5,-6.01,-7.61,-7.61,0,*55
1521266738.37,17128,8.31,71980.0,-6.01,-7.69,-7.69,0,*5A
1521266739.62,17129,8.25,71976.5,-6.01,-7.73,-7.61,0,*58
1521266740.87,17130,8.25,71980.0,-6.01,-7.69,-7.69,0,*53
1521266742.12,17131,8.25,71970.5,-6.05,-7.73,-7.65,0,*51
1521266743.37,17132,8.25,71962.5,-6.05,-7.73,-7.73,0,*55
1521266744.65,17133,8.31,71970.5,-6.07,-7.69,-7.77,0,*59
1521266745.9,17134,8.25,71968.3,-6.05,-7.73,-7.65,0,*54
1521266747.15,17135,8.31,71960.8,-6.05,-7.65,-7.77,0,*51
1521266748.4,17136,8.31,71970.0,-6.05,-7.73,-7.73,0,*51
1521266749.65,17137,8.31,71966.3,-6.05,-7.65,-7.65,0,*50
1521266750.91,17138,8.31,71966.8,-6.05,-7.73,-7.65,0,*58
1521266752.15,17139,8.25,71962.0,-6.07,-7.83,-7.69,0,*58
1521266753.4,17140,8.25,71962.5,-6.05,-7.65,-7.65,0,*50
1521266754.66,17141,8.31,71970.3,-6.05,-7.73,-7.73,0,*51
1521266755.91,17142,8.25,71966.5,-6.05,-7.65,-7.65,0,*52
1521266757.16,17143,8.25,71968.0,-6.01,-7.61,-7.61,0,*57
1521266758.43,17144,8.31,71976.8,-6.07,-7.77,-7.65,0,*55
1521266759.68,17145,8.31,71972.0,-6.05,-7.65,-7.65,0,*55
1521266760.95,17146,8.25,71972.3,-6.07,-7.69,-7.69,0,*54
1521266762.2,17147,8.31,71976.3,-6.05,-7.65,-7.65,0,*57
1521266763.45,17148,8.25,71972.3,-6.05,-7.65,-7.65,0,*58
1521266764.72,17149,8.31,71970.3,-6.07,-7.77,-7.69,0,*54
1521266765.97,17150,8.31,71974.0,-6.05,-7.69,-7.65,0,*5D
1521266767.21,17151,8.25,71970.5,-6.05,-7.65,-7.65,0,*50
1521266768.46,17152,8.31,71972.0,-6.05,-7.65,-7.65,0,*53
1521266769.71,17153,8.25,71968.8,-6.01,-7.61,-7.61,0,*56
1521266770.96,17154,8.25,71970.5,-6.05,-7.65,-7.65,0,*55
1521266772.24,17155,8.31,71972.5,-6.07,-7.69,-7.65,0,*5A
1521266773.48,17156,8.25,71970.5,-6.01,-7.61,-7.57,0,*56
1521266774.76,17157,8.25,71962.5,-5.99,-7.61,-7.57,0,*55
1521266776.01,17158,8.31,71976.3,-6.01,-7.57,-7.57,0,*5D
1521266777.26,17159,8.31,71974.0,-6.05,-7.61,-7.61,0,*58
1521266778.51,17160,8.25,71968.5,-6.01,-7.57,-7.57,0,*56
1521266779.76,17161,8.25,71968.3,-6.01,-7.57,-7.57,0,*57
1521266781.03,17162,8.31,71968.3,-5.99,-7.57,-7.57,0,*56
1521266782.29,17163,8.31,71972.8,-6.01,-7.57,-7.57,0,*55
1521266783.5,17164,8.31,71976.5,-6.01,-7.49,-7.57,0,*5D
1521266784.78,17165,8.31,71974.8,-5.99,-7.57,-7.57,0,*51
1521266786.03,17166,8.25,71974.8,-6.05,-7.61,-7.61,0,*54
1521266787.28,17167,8.25,71982.0,-6.01,-7.57,-7.57,0,*51
1521266788.53,17168,8.25,71982.0,-6.01,-7.61,-7.61,0,*5E
1521266789.78,17169,8.31,71980.3,-6.01,-7.61,-7.57,0,*5A
1521266791.03,17170,8.25,71976.8,-6.01,-7.61,-7.57,0,*52
1521266792.27,17171,8.31,71980.8,-6.01,-7.61,-7.57,0,*53
1521266793.52,17172,8.31,71984.3,-6.01,-7.61,-7.61,0,*55
1521266794.77,17173,8.25,71980.0,-6.01,-7.61,-7.61,0,*54
1521266796.04,17174,8.25,71980.0,-5.99,-7.61,-7.69,0,*59
1521266797.31,17175,8.31,71984.5,-5.99,-7.61,-7.61,0,*50
1521266798.58,17176,8.31,71982.5,-5.99,-7.61,-7.57,0,*56
1521266799.86,17177,8.25,71982.5,-5.99,-7.61,-7.57,0,*57
1521266801.13,17178,8.25,71978.8,-5.99,-7.61,-7.61,0,*5D
1521266802.4,17179,8.31,71980.5,-5.99,-7.61,-7.61,0,*5C
1521266803.67,17180,8.25,71974.3,-5.99,-7.61,-7.61,0,*5A
1521266804.94,17181,8.31,71974.3,-5.99,-7.61,-7.69,0,*53
1521266806.22,17182,8.25,71972.8,-5.99,-7.61,-7.61,0,*58
1521266807.49,17183,8.31,71974.3,-5.99,-7.61,-7.61,0,*59
1521266808.76,17184,8.25,71974.0,-5.99,-7.61,-7.61,0,*5E
1521266810.01,17185,8.31,71980.8,-6.01,-7.69,-7.61,0,*55
1521266811.26,17186,8.31,71978.3,-6.01,-7.61,-7.61,0,*5E
1521266812.53,17187,8.31,71978.0,-5.99,-7.61,-7.61,0,*5D
1521266813.8,17188,8.25,71972.8,-5.99,-7.69,-7.61,0,*5A
1521266815.08,17189,8.31,71972.3,-5.99,-7.61,-7.61,0,*53
1521266816.35,17190,8.25,71972.3,-5.99,-7.61,-7.61,0,*5B
1521266817.6,17191,8.31,71974.3,-5.97,-7.57,-7.57,0,*54
1521266818.87,17192,8.25,71972.5,-5.99,-7.61,-7.69,0,*51
1521266820.14,17193,8.31,71972.5,-5.99,-7.61,-7.61,0,*58
1521266821.41,17194,8.25,71972.8,-5.99,-7.61,-7.61,0,*5F
1521266822.69,17195,8.31,71976.3,-5.99,-7.61,-7.61,0,*5E
1521266823.96,17196,8.25,71976.3,-5.99,-7.61,-7.61,0,*5D
1521266825.21,17197,8.25,71974.0,-6.01,-7.61,-7.61,0,*5E
1521266826.48,17198,8.31,71976.8,-5.99,-7.61,-7.61,0,*53
1521266827.76,17199,8.31,71980.5,-5.99,-7.61,-7.61,0,*52
1521266829.0,17200,8.31,71982.0,-5.97,-7.65,-7.65,0,*5F
1521266830.25,17201,8.25,71980.0,-5.97,-7.57,-7.57,0,*5E
1521266831.5,17202,8.25,71980.8,-5.97,-7.57,-7.57,0,*5D
1521266832.75,17203,8.25,71982.5,-5.97,-7.57,-7.57,0,*5C
1521266834.03,17204,8.31,71984.8,-5.99,-7.61,-7.61,0,*55
1521266835.3,17205,8.31,71986.3,-5.99,-7.69,-7.61,0,*5C
1521266836.54,17206,8.25,71976.0,-5.97,-7.57,-7.57,0,*59
1521266837.79,17207,8.25,71976.8,-5.97,-7.57,-7.57,0,*58
1521266839.04,17208,8.31,71976.0,-5.97,-7.65,-7.57,0,*56
1521266840.29,17209,8.31,71974.3,-5.97,-7.57,-7.57,0,*56
1521266841.55,17210,8.31,71968.8,-5.95,-7.57,-7.57,0,*5C
1521266842.8,17211,8.31,71970.3,-5.97,-7.57,-7.57,0,*5F
1521266844.05,17212,8.31,71966.5,-5.97,-7.57,-7.65,0,*5D
1521266845.3,17213,8.31,71968.0,-5.97,-7.57,-7.65,0,*5C
1521266846.55,17214,8.25,71970.0,-5.97,-7.57,-7.57,0,*5A
1521266847.8,17215,8.31,71972.5,-5.97,-7.57,-7.57,0,*5B
1521266849.07,17216,8.31,71980.5,-5.99,-7.61,-7.69,0,*5E
1521266850.33,17217,8.31,71984.0,-5.99,-7.69,-7.69,0,*57
1521266851.58,17218,8.31,71980.5,-5.97,-7.57,-7.57,0,*56
1521266852.83,17219,8.31,71990.3,-5.97,-7.57,-7.65,0,*56
1521266854.08,17220,8.31,71984.8,-5.97,-7.65,-7.57,0,*5C
1521266855.33,17221,8.31,71978.5,-5.97,-7.57,-7.57,0,*5C
1521266856.57,17222,8.31,71970.3,-5.97,-7.65,-7.57,0,*5E
1521266857.82,17223,8.31,71970.8,-5.97,-7.57,-7.57,0,*5E
1521266859.07,17224,8.25,71970.8,-5.97,-7.65,-7.65,0,*59
1521266860.32,17225,8.25,71968.5,-5.97,-7.65,-7.57,0,*59
1521266861.57,17226,8.31,71964.0,-5.97,-7.57,-7.57,0,*5B
1521266862.81,17227,8.25,71964.0,-5.97,-7.65,-7.57,0,*5B
1521266864.07,17228,8.31,71962.8,-5.95,-7.65,-7.65,0,*57
1521266865.31,17229,8.31,71964.0,-5.97,-7.65,-7.65,0,*54
1521266866.57,17230,8.31,71974.8,-5.95,-7.57,-7.57,0,*5E
1521266867.82,17231,8.31,71974.0,-5.97,-7.57,-7.65,0,*5C
1521266869.08,17232,8.31,71976.0,-5.95,-7.57,-7.57,0,*5C
1521266870.34,17233,8.31,71978.0,-5.95,-7.57,-7.65,0,*5C
1521266871.58,17234,8.31,71978.5,-5.97,-7.65,-7.57,0,*59
1521266872.83,17235,8.31,71976.8,-5.97,-7.57,-7.65,0,*58
1521266874.08,17236,8.25,71974.3,-5.97,-7.57,-7.57,0,*5A
1521266875.34,17237,8.31,71974.0,-5.95,-7.65,-7.65,0,*59
1521266876.59,17238,8.31,71976.8,-5.97,-7.57,-7.65,0,*55
1521266877.84,17239,8.31,71982.3,-5.97,-7.57,-7.65,0,*54
1521266879.09,17240,8.31,71980.8,-5.97,-7.57,-7.65,0,*5A
1521266880.34,17241,8.31,71980.0,-5.97,-7.57,-7.57,0,*5A
1521266881.58,17242,8.31,71978.8,-5.97,-7.65,-7.65,0,*59
1521266882.83,17243,8.25,71978.3,-5.95,-7.65,-7.69,0,*56
1521266884.09,17244,8.25,71980.0,-5.95,-7.65,-7.65,0,*5D
1521266885.34,17245,8.31,71984.0,-5.97,-7.57,-7.65,0,*5F
1521266886.6,17246,8.31,71982.8,-5.95,-7.57,-7.57,0,*5F
1521266887.85,17247,8.25,71986.8,-5.97,-7.57,-7.57,0,*5C
1521266889.1,17248,8.31,71986.8,-5.97,-7.57,-7.57,0,*53
1521266890.34,17249,8.25,71978.5,-5.97,-7.65,-7.57,0,*53
1521266891.6,17250,8.31,71978.8,-5.95,-7.65,-7.57,0,*59
1521266892.86,17251,8.25,71978.8,-5.95,-7.65,-7.57,0,*58
1521266894.11,17252,8.31,71986.0,-5.95,-7.57,-7.57,0,*5A
1521266895.36,17253,8.25,71980.3,-5.97,-7.65,-7.57,0,*58
1521266896.61,17254,8.31,71980.8,-5.97,-7.65,-7.65,0,*5E
1521266897.86,17255,8.31,71980.3,-5.95,-7.65,-7.57,0,*5C
1521266899.11,17256,8.25,71978.3,-5.97,-7.65,-7.57,0,*5D
1521266900.35,17257,8.31,71972.8,-5.97,-7.65,-7.65,0,*5D
1521266901.61,17258,8.31,71974.0,-5.95,-7.65,-7.57,0,*51
1521266902.86,17259,8.31,71978.5,-5.97,-7.57,-7.65,0,*52
1521266904.12,17260,8.25,71982.0,-5.95,-7.57,-7.57,0,*5B
1521266905.36,17261,8.25,71978.8,-5.97,-7.65,-7.57,0,*59
1521266906.62,17262,8.31,71974.8,-5.95,-7.65,-7.57,0,*58
1521266907.87,17263,8.25,71970.5,-5.97,-7.65,-7.57,0,*5B
1521266909.12,17264,8.25,71970.8,-5.97,-7.57,-7.65,0,*5C
1521266910.36,17265,8.25,71980.5,-5.97,-7.69,-7.65,0,*50
1521266911.61,17266,8.31,71982.3,-5.95,-7.65,-7.65,0,*5D
1521266912.86,17267,8.31,71984.5,-5.97,-7.57,-7.57,0,*5E
1521266914.12,17268,8.31,71982.0,-5.95,-7.57,-7.65,0,*52
1521266915.38,17269,8.31,71974.5,-5.95,-7.65,-7.57,0,*53
1521266916.62,17270,8.31,71974.8,-5.97,-7.65,-7.57,0,*59
1521266917.88,17271,8.31,71978.5,-5.95,-7.57,-7.65,0,*5A
1521266919.13,17272,8.31,71972.8,-5.97,-7.65,-7.57,0,*5B
1521266920.39,17273,8.25,71974.3,-5.95,-7.57,-7.57,0,*59
1521266921.64,17274,8.31,71970.3,-5.97,-7.57,-7.57,0,*5C
1521266922.88,17275,8.31,71974.0,-5.97,-7.65,-7.57,0,*5C
1521266924.14,17276,8.31,71978.3,-5.95,-7.57,-7.65,0,*5D
1521266925.4,17277,8.31,71974.3,-5.95,-7.65,-7.57,0,*5C